Hourly Data Report for February 11, 2020

All times are specified in Local Standard Time (LST). Add 1 hour to adjust for Daylight Saving Time where and when it is observed.

OTTAWA INTL A
ONTARIO
Current Station Operator: NAVCAN

45°19'00.000" N
75°40'00.000" W
114.90 m
6106001
71628
YOW

Download Data

Hourly Data (February 2020)
Hourly Data Report for February 11, 2020
TIME Temp Definition
°C
Dew Point Definition
°C
Rel Hum Definition
%
Wind Dir Definition
10's deg

Wind Spd Definition
km/h
Visibility Definition
km
Stn Press Definition
kPa
Hmdx Definition


Wind Chill Definition


Weather Definition


00:00 -11.2 -12.5 90 21 4 0.8 100.55   -14 Freezing Fog
01:00 -7.8 -8.8 93 18 5 8.1 100.55   -10 Fog
02:00 -6.7 -7.5 93 10 4 24.1 100.47   -9 LegendNANA
03:00 -5.9 -6.7 94 2 9 16.1 100.37   -10 LegendNANA
04:00 -6.1 -7.0 94 9 4 16.1 100.34   -8 Cloudy
05:00 -5.8 -6.6 94 5 6 24.1 100.35   -9 LegendNANA
06:00 -5.9 -6.8 94 4 9 24.1 100.24   -10 LegendNANA
07:00 -5.8 -6.6 94 6 4 16.1 100.19   -8 Cloudy
08:00 -5.5 -6.3 94 35 4 12.9 100.18   -7 LegendNANA
09:00 -5.7 -6.5 94 32 4 12.9 100.12   -8 LegendNANA
10:00 -5.0 -5.8 95 30 5 12.9 100.06   -7 Cloudy
11:00 -4.2 -4.8 95 25 6 12.9 100.01   -7 LegendNANA
12:00 -3.2 -3.9 95 25 9 16.1 99.91   -7 LegendNANA
13:00 -1.3 -5.8 72 25 15 24.1 99.81   -6 Cloudy
14:00 -1.2 -5.8 71 25 13 24.1 99.77   -5 LegendNANA
15:00 -0.8 -5.7 70 26 10 24.1 99.68   -4 LegendNANA
16:00 -0.6 -5.5 69 22 9 24.1 99.62   -4 Cloudy
17:00 -1.2 -6.2 69 25 11 24.1 99.61   -5 LegendNANA
18:00 -2.0 -6.4 72 27 7 24.1 99.58   -5 LegendNANA
19:00 -2.0 -5.8 76 22 7 24.1 99.59   -5 Cloudy
20:00 -1.9 -6.0 74 21 9 24.1 99.59   -5 LegendNANA
21:00 -1.2 -5.4 73 26 14 24.1 99.60   -6 LegendNANA
22:00 -0.8 -5.3 72 24 17 24.1 99.60   -6 Snow
23:00 -0.8 -5.3 72 23 17 24.1 99.63   -6 Snow

Notes on Data Quality.

Legend

  • E = Estimated
  • M = Missing
  • NA = Not Available*
  • [empty] = Indicates an unobserved value
Date modified: